| time (UTC) | temp F | wind direction | speed MPH | gust MPH | rain 1hr in | rain 24hr in | rain mn in | humidity % | barometer mb |
| 20260504192003 | 74 | 346 | 4.0 | 12.0 | 0.00 | 0.00 | 0.00 | 38 | 1006.3 |
| 20260504191003 | 74 | 2 | 3.0 | 11.0 | 0.00 | 0.00 | 0.00 | 39 | 1006.5 |
| 20260504190003 | 74 | 348 | 4.0 | 11.0 | 0.00 | 0.00 | 0.00 | 38 | 1006.6 |
| 20260504185214 | 74 | 359 | 4.0 | 11.0 | 0.00 | 0.00 | 0.00 | 38 | 1006.7 |
| 20260504184003 | 74 | 4 | 2.0 | 8.0 | 0.00 | 0.00 | 0.00 | 38 | 1006.8 |
| 20260504183003 | 73 | 32 | 3.0 | 11.0 | 0.00 | 0.00 | 0.00 | 38 | 1006.7 |
| 20260504182003 | 73 | 351 | 3.0 | 9.0 | 0.00 | 0.00 | 0.00 | 38 | 1006.8 |
| 20260504181003 | 73 | 350 | 3.0 | 13.0 | 0.00 | 0.00 | 0.00 | 40 | 1007.0 |
| 20260504180003 | 73 | 353 | 3.0 | 13.0 | 0.00 | 0.00 | 0.00 | 39 | 1007.0 |
| 20260504175003 | 72 | 2 | 3.0 | 8.0 | 0.00 | 0.00 | 0.00 | 39 | 1007.2 |
| 20260504174003 | 72 | 360 | 4.0 | 12.0 | 0.00 | 0.00 | 0.00 | 40 | 1007.3 |
| 20260504173213 | 72 | 23 | 2.0 | 10.0 | 0.00 | 0.00 | 0.00 | 40 | 1007.5 |
| 20260504172003 | 71 | 31 | 3.0 | 9.0 | 0.00 | 0.00 | 0.00 | 40 | 1007.6 |
| 20260504171003 | 71 | 357 | 3.0 | 11.0 | 0.00 | 0.00 | 0.00 | 41 | 1007.6 |
| 20260504151003 | 66 | 18 | 3.0 | 14.0 | 0.00 | 0.00 | 0.00 | 39 | 1009.3 |
| 20260504141003 | 62 | 356 | 2.0 | 5.0 | 0.00 | 0.00 | 0.00 | 43 | 1009.7 |
| 20260504130214 | 55 | 353 | 1.0 | 4.0 | 0.00 | 0.00 | 0.00 | 54 | 1010.2 |
| 20260504110213 | 36 | 0 | 0.0 | 0.0 | 0.00 | 0.00 | 0.00 | 94 | 1010.7 |
| 20260504100212 | 35 | 0 | 0.0 | 0.0 | 0.00 | 0.00 | 0.00 | 92 | 1010.3 |
| 20260504082004 | 37 | 0 | 0.0 | 0.0 | 0.00 | 0.00 | 0.00 | 91 | 1010.7 |
| 20260504081003 | 37 | 0 | 0.0 | 0.0 | 0.00 | 0.00 | 0.00 | 91 | 1010.7 |
| 20260504050213 | 38 | 0 | 0.0 | 0.0 | 0.00 | 0.00 | 0.00 | 89 | 1010.7 |
| 20260504045003 | 39 | 0 | 0.0 | 0.0 | 0.00 | 0.00 | 0.00 | 88 | 1010.6 |
| 20260504044003 | 39 | 0 | 0.0 | 0.0 | 0.00 | 0.00 | 0.00 | 88 | 1010.7 |
| 20260504043003 | 39 | 0 | 0.0 | 0.0 | 0.00 | 0.00 | 0.00 | 88 | 1010.6 |
| 20260504042003 | 39 | 0 | 0.0 | 0.0 | 0.00 | 0.00 | 0.00 | 87 | 1010.5 |
| 20260504041214 | 40 | 0 | 0.0 | 0.0 | 0.00 | 0.00 | 0.00 | 87 | 1010.5 |
| 20260504040004 | 40 | 0 | 0.0 | 0.0 | 0.00 | 0.00 | 0.00 | 87 | 1010.4 |
| 20260504035003 | 40 | 0 | 0.0 | 0.0 | 0.00 | 0.00 | 0.00 | 86 | 1010.5 |
| 20260504034003 | 40 | 0 | 0.0 | 0.0 | 0.00 | 0.00 | 0.00 | 85 | 1010.3 |
| 20260504033003 | 41 | 0 | 0.0 | 0.0 | 0.00 | 0.00 | 0.00 | 85 | 1010.3 |
| 20260504032003 | 41 | 0 | 0.0 | 0.0 | 0.00 | 0.00 | 0.00 | 84 | 1010.3 |
| 20260504031003 | 42 | 0 | 0.0 | 0.0 | 0.00 | 0.00 | 0.00 | 84 | 1010.3 |
| 20260504030214 | 42 | 0 | 0.0 | 0.0 | 0.00 | 0.00 | 0.00 | 83 | 1010.2 |
| 20260504025214 | 42 | 0 | 0.0 | 0.0 | 0.00 | 0.00 | 0.00 | 83 | 1010.2 |
| 20260504024003 | 43 | 0 | 0.0 | 0.0 | 0.00 | 0.00 | 0.00 | 81 | 1010.3 |
| 20260504023003 | 43 | 0 | 0.0 | 0.0 | 0.00 | 0.00 | 0.00 | 80 | 1010.3 |
| 20260504022003 | 43 | 0 | 0.0 | 0.0 | 0.00 | 0.00 | 0.00 | 80 | 1010.2 |
| 20260504021003 | 44 | 0 | 0.0 | 0.0 | 0.00 | 0.00 | 0.00 | 78 | 1010.2 |
| 20260504020003 | 44 | 0 | 0.0 | 0.0 | 0.00 | 0.00 | 0.00 | 78 | 1010.2 |
| 20260504015003 | 45 | 0 | 0.0 | 0.0 | 0.00 | 0.00 | 0.00 | 74 | 1010.1 |
| 20260504014003 | 46 | 0 | 0.0 | 0.0 | 0.00 | 0.00 | 0.00 | 73 | 1010.1 |
| 20260504013213 | 46 | 0 | 0.0 | 0.0 | 0.00 | 0.00 | 0.00 | 72 | 1010.0 |
| 20260504012003 | 47 | 0 | 0.0 | 0.0 | 0.00 | 0.00 | 0.00 | 69 | 1009.9 |
| 20260504011003 | 48 | 0 | 0.0 | 0.0 | 0.00 | 0.00 | 0.00 | 68 | 1009.8 |
| 20260504010003 | 49 | 0 | 0.0 | 0.0 | 0.00 | 0.00 | 0.00 | 64 | 1009.5 |
| 20260504005004 | 50 | 0 | 0.0 | 0.0 | 0.00 | 0.00 | 0.00 | 63 | 1009.7 |
| 20260504004003 | 52 | 0 | 0.0 | 0.0 | 0.00 | 0.00 | 0.00 | 59 | 1009.6 |
| 20260504003003 | 53 | 0 | 0.0 | 0.0 | 0.00 | 0.00 | 0.00 | 56 | 1009.5 |
| 20260504002003 | 54 | 37 | 0.0 | 2.0 | 0.00 | 0.00 | 0.00 | 49 | 1009.4 |
| 20260504001003 | 55 | 37 | 1.0 | 2.0 | 0.00 | 0.00 | 0.00 | 48 | 1009.3 |
| 20260504000003 | 56 | 39 | 1.0 | 3.0 | 0.00 | 0.00 | 0.00 | 45 | 1009.2 |
| 20260503235003 | 57 | 67 | 1.0 | 8.0 | 0.00 | 0.00 | 0.00 | 43 | 1009.1 |
| 20260503234003 | 58 | 45 | 1.0 | 5.0 | 0.00 | 0.00 | 0.00 | 44 | 1009.0 |
| 20260503233003 | 58 | 8 | 1.0 | 8.0 | 0.00 | 0.00 | 0.00 | 41 | 1009.0 |
| 20260503232003 | 59 | 54 | 1.0 | 6.0 | 0.00 | 0.00 | 0.00 | 40 | 1008.9 |
| 20260503231003 | 59 | 29 | 3.0 | 10.0 | 0.00 | 0.00 | 0.00 | 37 | 1008.9 |
| 20260503230003 | 60 | 346 | 2.0 | 8.0 | 0.00 | 0.00 | 0.00 | 37 | 1009.0 |
| 20260503225003 | 60 | 36 | 2.0 | 11.0 | 0.00 | 0.00 | 0.00 | 36 | 1008.9 |
| 20260503224003 | 61 | 18 | 3.0 | 7.0 | 0.00 | 0.00 | 0.00 | 36 | 1008.9 |
| 20260503223003 | 60 | 23 | 3.0 | 9.0 | 0.00 | 0.00 | 0.00 | 38 | 1009.0 |
| 20260503222003 | 60 | 19 | 2.0 | 6.0 | 0.00 | 0.00 | 0.00 | 40 | 1008.9 |
| 20260503221003 | 60 | 32 | 2.0 | 7.0 | 0.00 | 0.00 | 0.00 | 39 | 1008.8 |
| 20260503220214 | 60 | 354 | 3.0 | 8.0 | 0.00 | 0.00 | 0.00 | 37 | 1008.8 |
| 20260503215003 | 60 | 1 | 2.0 | 7.0 | 0.00 | 0.00 | 0.00 | 36 | 1008.9 |
| 20260503214003 | 62 | 16 | 2.0 | 9.0 | 0.00 | 0.00 | 0.00 | 36 | 1008.7 |
| 20260503213003 | 61 | 22 | 3.0 | 13.0 | 0.00 | 0.00 | 0.00 | 36 | 1008.6 |
| 20260503212003 | 61 | 351 | 3.0 | 10.0 | 0.00 | 0.00 | 0.00 | 36 | 1008.6 |
| 20260503211003 | 61 | 7 | 4.0 | 13.0 | 0.00 | 0.00 | 0.00 | 34 | 1008.6 |
| 20260503210003 | 61 | 341 | 4.0 | 12.0 | 0.00 | 0.00 | 0.00 | 34 | 1008.6 |
| 20260503205003 | 61 | 339 | 3.0 | 9.0 | 0.00 | 0.00 | 0.00 | 35 | 1008.4 |
| 20260503204003 | 61 | 352 | 4.0 | 11.0 | 0.00 | 0.00 | 0.00 | 35 | 1008.5 |
| 20260503203213 | 60 | 353 | 4.0 | 10.0 | 0.00 | 0.00 | 0.00 | 34 | 1008.4 |
| 20260503202213 | 60 | 48 | 2.0 | 7.0 | 0.00 | 0.00 | 0.00 | 35 | 1008.5 |
| 20260503201003 | 59 | 348 | 3.0 | 9.0 | 0.00 | 0.00 | 0.00 | 34 | 1008.6 |
| 20260503200003 | 60 | 355 | 4.0 | 12.0 | 0.00 | 0.00 | 0.00 | 34 | 1008.7 |
| 20260503195003 | 60 | 328 | 2.0 | 11.0 | 0.00 | 0.00 | 0.00 | 33 | 1008.8 |
| 20260503194003 | 60 | 328 | 2.0 | 12.0 | 0.00 | 0.00 | 0.00 | 33 | 1008.9 |
| 20260503193003 | 60 | 352 | 2.0 | 6.0 | 0.00 | 0.00 | 0.00 | 33 | 1009.2 |